Notices

What's New in latest Release from April 7th, 2021:

- Updated Glossary, including Speed of Maximum Gust, and Total Hourly Precipitation

- Updated national and regional climate services offices contacts and prices information

- Addition of station inventory lists for 1981-2010, 1971-2000, and 1961-1990 Normals.

If you haven't already, please take our survey and provide feedback about our website: https://eccc.sondage-survey.ca/f/LanguageSelection.aspx?s=442ca660-fcf1-47c0-95a9-59707d6fd709

Hourly Data Report for March 07, 2021

NANAIMO A
BRITISH COLUMBIA
Current Station Operator: NAVCAN

49°03'16.000" N
123°52'12.000" W
28.00 m
1025365
YCD

Download Data

Hourly Data (March 2021)
Hourly Data Report for March 7, 2021
TIME
LST
Temp Definition
°C
Dew Point Definition
°C
Rel Hum Definition
%
Precip. Amount Definition
mm

Wind Dir Definition
10's deg

Wind Spd Definition
km/h
Visibility Definition
km
Stn Press Definition
kPa
Hmdx Definition


Wind Chill Definition


Weather Definition


00:00 3.6 3.4 99 LegendMM 35 2 LegendMM 100.76     LegendNANA
01:00 4.0 3.8 99 LegendMM 28 3 LegendMM 100.71     LegendNANA
02:00 6.5 3.1 79 LegendMM 13 17 LegendMM 100.66     LegendNANA
03:00 6.6 3.1 78 LegendMM 14 19 LegendMM 100.60     LegendNANA
04:00 6.0 3.2 82 LegendMM 14 12 LegendMM 100.57     LegendNANA
05:00 4.6 2.9 88 LegendMM 16 8 LegendMM 100.64     LegendNANA
06:00 3.8 3.0 94 LegendMM 26 3 LegendMM 100.68     LegendNANA
07:00 5.2 0.2 70 LegendMM 21 16 LegendMM 100.73     LegendNANA
08:00 6.4 -1.6 57 LegendMM 15 14 LegendMM 100.84     LegendNANA
09:00 5.8 1.6 74 LegendMM 16 9 LegendMM 100.94     LegendNANA
10:00 6.9 -0.6 59 LegendMM 18 5 LegendMM 101.04     LegendNANA
11:00 5.3 1.4 76 LegendMM 23 22 LegendMM 101.19     LegendNANA
12:00 6.4 3.9 84 LegendMM 21 12 LegendMM 101.22     LegendNANA
13:00 7.1 0.8 64 LegendMM 20 10 LegendMM 101.28     LegendNANA
14:00 8.7 -0.8 51 LegendMM 21 19 LegendMM 101.33     LegendNANA
15:00 6.5 0.8 67 LegendMM 22 18 LegendMM 101.44     LegendNANA
16:00 7.0 0.2 62 LegendMM 17 11 LegendMM 101.47     LegendNANA
17:00 7.2 -0.6 57 LegendMM 25 6 LegendMM 101.51     LegendNANA
18:00 5.7 1.0 71 LegendMM 15 17 LegendMM 101.56     LegendNANA
19:00 5.4 1.5 76 LegendMM 15 26 LegendMM 101.63     LegendNANA
20:00 5.2 1.6 77 LegendMM 15 23 LegendMM 101.68     LegendNANA
21:00 4.6 2.1 84 LegendMM 12 15 LegendMM 101.73     LegendNANA
22:00 4.8 2.1 82 LegendMM 13 16 LegendMM 101.75     LegendNANA
23:00 4.9 2.1 82 LegendMM 13 15 LegendMM 101.74     LegendNANA

Notes on Data Quality.

Legend

  • E = Estimated
  • M = Missing
  • NA = Not Available*
  • [empty] = Indicates an unobserved value
Date modified: